Total_Precipitation_Accumulation
1.44 1.43 1.44 1.44 1.55 1.70 1.85 2.11 2.33 2.22 1.94 1.68 1.67 1.63 1.58 1.62 1.81 1.57 1.44 1.45 1.33 1.23 1.23 1.21 1.22 1.25 1.27 1.24 1.26 1.33 1.44 1.62 1.86 2.05 2.21 2.40 2.54 2.66
1.34 1.30 1.29 1.28 1.34 1.39 1.50 1.68 1.96 2.13 1.97 1.61 1.57 1.54 1.53 1.46 1.66 1.49 1.47 1.48 1.26 1.10 1.03 1.02 1.04 1.09 1.10 1.07 1.09 1.12 1.18 1.27 1.46 1.68 1.90 2.10 2.25 2.40
1.20 1.22 1.24 1.28 1.33 1.29 1.33 1.45 1.63 1.84 1.95 1.75 1.59 1.53 1.52 1.58 1.57 1.45 1.36 1.27 1.17 1.13 0.98 0.92 0.92 0.99 1.00 0.98 1.01 1.03 1.05 1.15 1.30 1.47 1.68 1.88 2.04 2.14
1.12 1.20 1.21 1.24 1.29 1.29 1.34 1.40 1.53 1.73 1.87 1.91 1.73 1.58 1.53 1.54 1.56 1.50 1.24 1.11 1.10 1.18 1.02 0.91 0.85 0.83 0.91 0.89 0.89 0.95 1.02 1.12 1.22 1.34 1.51 1.67 1.80 1.88
1.07 1.14 1.18 1.23 1.23 1.25 1.31 1.36 1.49 1.61 1.80 1.89 1.79 1.65 1.57 1.51 1.60 1.51 1.38 1.42 1.18 1.12 1.04 0.96 0.89 0.87 1.07 1.09 0.88 0.87 0.91 1.03 1.11 1.18 1.31 1.42 1.52 1.59
0.91 1.02 1.09 1.13 1.14 1.22 1.27 1.34 1.43 1.60 1.75 1.82 1.72 1.61 1.55 1.56 1.65 1.67 1.59 1.51 1.37 1.09 1.09 1.02 0.99 1.00 1.31 1.80 1.29 0.99 0.94 0.99 1.07 1.14 1.17 1.18 1.19 1.23
0.80 0.88 0.95 0.97 0.97 1.05 1.07 1.19 1.36 1.54 1.64 1.73 1.69 1.63 1.57 1.68 1.71 1.63 1.57 1.55 1.42 1.26 1.25 1.13 1.24 1.51 2.01 2.63 2.14 1.50 1.26 1.14 1.07 1.10 1.13 1.11 1.06 1.02
0.86 0.87 0.82 0.83 0.81 0.78 0.86 0.96 1.14 1.37 1.58 1.68 1.65 1.65 1.61 1.66 1.77 1.73 1.68 1.70 1.65 1.38 1.32 1.28 1.47 2.21 2.83 3.11 2.65 1.83 1.51 1.29 1.15 1.17 1.21 1.17 1.04 0.94
0.92 0.89 0.76 0.72 0.83 0.85 0.87 0.89 1.01 1.14 1.38 1.63 1.70 1.61 1.62 1.68 1.83 1.88 1.80 1.77 1.71 1.49 1.51 1.52 1.71 2.50 2.73 2.85 2.66 1.89 1.58 1.42 1.35 1.41 1.39 1.20 1.02 0.91
0.75 0.81 0.89 0.90 0.84 0.88 0.88 0.99 1.08 1.18 1.25 1.38 1.59 1.54 1.50 1.61 1.74 1.78 1.73 1.67 1.61 1.48 1.49 1.66 1.85 2.36 2.34 2.44 2.47 1.94 1.63 1.51 1.46 1.45 1.41 1.19 1.00 0.88
0.58 0.63 0.70 0.75 0.75 0.82 0.94 1.11 1.17 1.28 1.27 1.43 1.47 1.40 1.41 1.46 1.43 1.48 1.73 1.87 1.77 1.50 1.38 1.54 1.75 2.04 2.09 2.16 2.08 1.89 1.69 1.58 1.47 1.41 1.31 1.09 0.97 0.92
0.61 0.68 0.66 0.60 0.66 0.77 0.97 1.20 1.34 1.38 1.46 1.61 1.59 1.56 1.47 1.44 1.36 1.39 1.69 1.91 1.86 1.62 1.35 1.40 1.55 1.73 1.98 1.95 1.78 1.66 1.70 1.72 1.61 1.53 1.36 1.07 0.85 0.82
0.65 0.73 0.73 0.63 0.58 0.66 0.87 1.09 1.26 1.30 1.51 1.76 1.65 1.49 1.43 1.40 1.38 1.38 1.53 1.63 1.60 1.49 1.25 1.34 1.53 1.64 1.76 1.81 1.74 1.70 1.63 1.64 1.65 1.69 1.57 1.26 0.93 0.73
0.71 0.72 0.71 0.67 0.63 0.71 0.86 1.04 1.16 1.35 1.55 1.66 1.46 1.29 1.20 1.19 1.23 1.19 1.17 1.20 1.25 1.23 1.17 1.30 1.55 1.72 1.72 1.61 1.69 1.69 1.68 1.68 1.67 1.71 1.70 1.52 1.22 1.00
0.64 0.69 0.65 0.62 0.72 0.93 1.05 1.15 1.31 1.53 1.59 1.46 1.33 1.20 1.08 1.10 1.08 1.05 1.04 1.09 1.07 0.95 0.90 1.02 1.29 1.50 1.61 1.59 1.63 1.63 1.72 1.90 1.87 1.83 1.77 1.61 1.39 1.18
0.59 0.73 0.77 0.78 0.94 1.15 1.29 1.39 1.49 1.58 1.45 1.31 1.24 1.11 0.98 1.04 1.08 1.04 1.14 1.16 1.14 1.07 0.96 0.97 1.10 1.30 1.43 1.43 1.56 1.67 1.72 2.08 2.15 1.95 1.89 1.82 1.56 1.34
0.57 0.74 0.89 0.93 1.05 1.21 1.34 1.41 1.46 1.47 1.41 1.28 1.19 1.10 1.01 0.99 0.96 0.91 1.00 1.07 1.11 1.14 1.12 1.07 1.10 1.15 1.24 1.32 1.51 1.63 1.75 2.00 2.12 1.90 1.78 1.86 1.75 1.48
0.64 0.90 0.98 0.96 1.02 1.12 1.23 1.33 1.32 1.29 1.26 1.27 1.26 1.20 1.10 0.98 0.94 0.90 0.91 0.99 1.07 1.06 1.05 1.03 1.01 1.04 1.15 1.26 1.43 1.54 1.57 1.75 1.81 1.66 1.47 1.54 1.71 1.52
0.68 0.88 0.98 1.02 1.06 1.10 1.12 1.16 1.22 1.23 1.17 1.17 1.20 1.14 1.02 0.95 0.93 0.93 0.91 0.96 1.00 0.94 0.87 0.81 0.80 0.88 1.02 1.32 1.48 1.52 1.49 1.49 1.47 1.46 1.36 1.27 1.40 1.39
0.65 0.83 0.93 0.99 1.04 1.09 1.09 1.06 1.10 1.13 1.08 1.02 1.05 1.04 0.97 0.93 0.94 0.94 0.93 0.89 0.90 0.84 0.79 0.72 0.69 0.77 0.92 1.15 1.52 1.66 1.44 1.24 1.17 1.27 1.28 1.23 1.33 1.36
0.59 0.70 0.80 0.89 0.91 0.93 0.97 0.98 1.02 1.07 1.00 0.96 0.99 1.03 1.01 0.95 0.89 0.81 0.76 0.68 0.74 0.77 0.75 0.75 0.73 0.68 0.67 0.80 1.09 1.37 1.41 1.28 1.13 1.11 1.11 1.17 1.21 1.12
0.56 0.66 0.74 0.77 0.78 0.74 0.75 0.79 0.84 0.86 0.88 0.91 0.94 0.92 0.87 0.83 0.75 0.67 0.66 0.67 0.71 0.75 0.73 0.69 0.65 0.64 0.69 0.81 0.97 1.14 1.23 1.13 1.05 1.04 1.01 0.96 0.93 0.97
0.60 0.64 0.68 0.69 0.68 0.65 0.64 0.64 0.68 0.73 0.77 0.79 0.84 0.82 0.76 0.71 0.66 0.60 0.57 0.56 0.56 0.59 0.63 0.67 0.69 0.67 0.69 0.73 0.76 0.85 0.94 0.94 0.88 0.87 0.96 0.97 0.88 0.94